Location: *
(37.9500°N, 27.3666°E)
Time: 06:32:14
(UTC+00:00)

Cosmos 614 Rocket - Pass Details

Date: 07 June 2022
Orbit: 732 x 764 km, 74.1° (Epoch: 03 July)

Event Time Altitude Azimuth Distance (km) Brightness Sun altitude
Rises 23:25:42 0° 324° (NW) 3,229 7.7 -26.6°
Reaches altitude 10° 23:28:40 10° 308° (NW) 2,301 6.6 -26.4°
Enters shadow 23:30:42 17° 286° (WNW) 1,860 5.9 -26.3°
